Location: Les Salelles
(44.4192°N, 4.1044°E)
Time: 19:53:49
(UTC+00:00)

Cosmos 1833 Rocket - Pass Details

Date: 20 January 2021
Orbit: 833 x 839 km, 71.0° (Epoch: 04 March)

Event Time Altitude Azimuth Distance (km) Brightness Sun altitude
Rises 17:48:21 0° 345° (NNW) 3,390 5.8 -12.7°
Reaches altitude 10° 17:52:12 10° 11° (N) 2,453 4.9 -13.4°
Maximum altitude 17:54:58 14° 41° (NE) 2,197 4.4 -13.9°
Enters shadow 17:55:00 14° 41° (NE) 2,197 4.4 -13.9°
